This is the latest recevied weather packets stored in our database for station/object AC0MR. If no packets are shown the sender has not sent any weather packets the latest 10 day(s).
| Time | Temp. | Humidity | Pressure | Rain* | Wind** | Luminosity | Snow |
|---|---|---|---|---|---|---|---|
| 1777689919 | 6.11° C | 63% | 1017.9 hPa | 0 mm | - | 0 W/m² | - |
| 1777689319 | 6.67° C | 62% | 1017.6 hPa | 0 mm | - | 0 W/m² | - |
| 1777688719 | 7.22° C | 61% | 1017.5 hPa | 0 mm | - | 0 W/m² | - |
| 1777688119 | 7.78° C | 60% | 1017.5 hPa | 0 mm | - | 0 W/m² | - |
| 1777687583 | 8.33° C | 59% | 1017.4 hPa | 0 mm | - | 0 W/m² | - |
| 1777686919 | 8.33° C | 58% | 1017.3 hPa | 0 mm | - | 0 W/m² | - |
| 1777686319 | 8.89° C | 55% | 1017.3 hPa | 0 mm | - | 0 W/m² | - |
| 1777685719 | 8.89° C | 56% | 1017.1 hPa | 0 mm | - | 0 W/m² | - |
| 1777685119 | 9.44° C | 57% | 1017 hPa | 0 mm | - | 0 W/m² | - |
| 1777684519 | 10° C | 58% | 1017 hPa | 0 mm | - | 0 W/m² | - |
| 1777683919 | 10° C | 58% | 1017 hPa | 0 mm | - | 5 W/m² | - |
| 1777683319 | 10° C | 58% | 1016.8 hPa | 0 mm | - | 13 W/m² | - |
| 1777682719 | 10.56° C | 58% | 1016.6 hPa | 0 mm | - | 19 W/m² | - |
| 1777682119 | 10.56° C | 58% | 1016.5 hPa | 0 mm | - | 22 W/m² | - |
| 1777681518 | 10.56° C | 54% | 1016.4 hPa | 0 mm | - | 26 W/m² | - |
| 1777680919 | 10.56° C | 52% | 1016.4 hPa | 0 mm | - | 36 W/m² | - |
| 1777680319 | 10.56° C | 52% | 1016.4 hPa | 0 mm | - | 58 W/m² | - |
| 1777679719 | 10.56° C | 51% | 1016.2 hPa | 0 mm | - | 46 W/m² | - |
| 1777679118 | 11.11° C | 51% | 1016.2 hPa | 0 mm | - | 50 W/m² | - |
| 1777678518 | 11.11° C | 49% | 1016.2 hPa | 0 mm | - | 56 W/m² | - |
| 1777677919 | 11.11° C | 48% | 1016.2 hPa | 0 mm | - | 260 W/m² | - |
| 1777677319 | 11.11° C | 50% | 1016.2 hPa | 0 mm | - | 172 W/m² | - |
| 1777676718 | 11.11° C | 49% | 1016.2 hPa | 0 mm | - | 145 W/m² | - |
| 1777676118 | 11.67° C | 50% | 1016.4 hPa | 0 mm | - | 155 W/m² | - |
| 1777675519 | 12.22° C | 48% | 1016.4 hPa | 0 mm | - | 162 W/m² | - |
* Rain latest hour (hover to see other rain measurements)
** Current wind speed in m/s (hover to see current wind gust speed)